owner,sensor,date,latitude,longitude,vertical_datum,sea_water_practical_salinity,qcFlag 
ENP,ioos.station.NOAA.NDBC:WIWF1:1,2019-10-01T00:00:00Z,25.5870,-81.0440,1.5,1.08,11111222 
ENP,ioos.station.NOAA.NDBC:WIWF1:1,2019-10-01T02:00:00Z,25.5870,-81.0440,1.5,1.07,11111222 
ENP,ioos.station.NOAA.NDBC:WIWF1:1,2019-10-01T04:00:00Z,25.5870,-81.0440,1.5,1.07,11111222 
ENP,ioos.station.NOAA.NDBC:WIWF1:1,2019-10-01T05:00:00Z,25.5870,-81.0440,1.5,1.07,11111222 
ENP,ioos.station.NOAA.NDBC:WIWF1:1,2019-10-01T06:00:00Z,25.5870,-81.0440,1.5,1.08,11111222 
ENP,ioos.station.NOAA.NDBC:WIWF1:1,2019-10-01T07:00:00Z,25.5870,-81.0440,1.5,1.08,11111222 
ENP,ioos.station.NOAA.NDBC:WIWF1:1,2019-10-01T08:00:00Z,25.5870,-81.0440,1.5,1.08,11111222 
ENP,ioos.station.NOAA.NDBC:WIWF1:1,2019-10-01T09:00:00Z,25.5870,-81.0440,1.5,0.99,11111222 
ENP,ioos.station.NOAA.NDBC:WIWF1:1,2019-10-01T10:00:00Z,25.5870,-81.0440,1.5,0.98,11111222 
ENP,ioos.station.NOAA.NDBC:WIWF1:1,2019-10-01T11:00:00Z,25.5870,-81.0440,1.5,0.99,11111222 
ENP,ioos.station.NOAA.NDBC:WIWF1:1,2019-10-01T12:00:00Z,25.5870,-81.0440,1.5,0.99,11111222 
ENP,ioos.station.NOAA.NDBC:WIWF1:1,2019-10-01T13:00:00Z,25.5870,-81.0440,1.5,1.0,11111222 
ENP,ioos.station.NOAA.NDBC:WIWF1:1,2019-10-01T14:00:00Z,25.5870,-81.0440,1.5,0.99,11111222 
ENP,ioos.station.NOAA.NDBC:WIWF1:1,2019-10-01T16:00:00Z,25.5870,-81.0440,1.5,0.99,11111222 
ENP,ioos.station.NOAA.NDBC:WIWF1:1,2019-10-01T17:00:00Z,25.5870,-81.0440,1.5,1.0,11111222 
ENP,ioos.station.NOAA.NDBC:WIWF1:1,2019-10-01T18:00:00Z,25.5870,-81.0440,1.5,1.01,11111222 
ENP,ioos.station.NOAA.NDBC:WIWF1:1,2019-10-01T19:00:00Z,25.5870,-81.0440,1.5,1.07,11111222 
ENP,ioos.station.NOAA.NDBC:WIWF1:1,2019-10-01T20:00:00Z,25.5870,-81.0440,1.5,1.05,11111222 
ENP,ioos.station.NOAA.NDBC:WIWF1:1,2019-10-01T21:00:00Z,25.5870,-81.0440,1.5,0.95,11111222 
ENP,ioos.station.NOAA.NDBC:WIWF1:1,2019-10-01T22:00:00Z,25.5870,-81.0440,1.5,0.84,11111222 
ENP,ioos.station.NOAA.NDBC:WIWF1:1,2019-10-01T23:00:00Z,25.5870,-81.0440,1.5,0.77,11111222 
ENP,ioos.station.NOAA.NDBC:WIWF1:1,2019-10-02T00:00:00Z,25.5870,-81.0440,1.5,0.77,11111222 
ENP,ioos.station.NOAA.NDBC:WIWF1:1,2019-10-02T02:00:00Z,25.5870,-81.0440,1.5,1.18,11111222 
ENP,ioos.station.NOAA.NDBC:WIWF1:1,2019-10-02T04:00:00Z,25.5870,-81.0440,1.5,1.05,11111222 
ENP,ioos.station.NOAA.NDBC:WIWF1:1,2019-10-02T05:00:00Z,25.5870,-81.0440,1.5,0.99,11111222 
ENP,ioos.station.NOAA.NDBC:WIWF1:1,2019-10-02T06:00:00Z,25.5870,-81.0440,1.5,0.87,11111222 
ENP,ioos.station.NOAA.NDBC:WIWF1:1,2019-10-02T07:00:00Z,25.5870,-81.0440,1.5,0.83,11111222 
ENP,ioos.station.NOAA.NDBC:WIWF1:1,2019-10-02T08:00:00Z,25.5870,-81.0440,1.5,0.83,11111222 
ENP,ioos.station.NOAA.NDBC:WIWF1:1,2019-10-02T09:00:00Z,25.5870,-81.0440,1.5,0.79,11111222 
ENP,ioos.station.NOAA.NDBC:WIWF1:1,2019-10-02T10:00:00Z,25.5870,-81.0440,1.5,0.76,11111222 
ENP,ioos.station.NOAA.NDBC:WIWF1:1,2019-10-02T11:00:00Z,25.5870,-81.0440,1.5,0.76,11111222 
ENP,ioos.station.NOAA.NDBC:WIWF1:1,2019-10-02T12:00:00Z,25.5870,-81.0440,1.5,0.77,11111222 
ENP,ioos.station.NOAA.NDBC:WIWF1:1,2019-10-02T13:00:00Z,25.5870,-81.0440,1.5,0.77,11111222 
ENP,ioos.station.NOAA.NDBC:WIWF1:1,2019-10-02T14:00:00Z,25.5870,-81.0440,1.5,0.77,11111222 
ENP,ioos.station.NOAA.NDBC:WIWF1:1,2019-10-02T15:00:00Z,25.5870,-81.0440,1.5,0.77,11111222 
ENP,ioos.station.NOAA.NDBC:WIWF1:1,2019-10-02T17:00:00Z,25.5870,-81.0440,1.5,0.78,11111222 
ENP,ioos.station.NOAA.NDBC:WIWF1:1,2019-10-02T18:00:00Z,25.5870,-81.0440,1.5,0.79,11111222 
ENP,ioos.station.NOAA.NDBC:WIWF1:1,2019-10-02T19:00:00Z,25.5870,-81.0440,1.5,0.8,11111222 
ENP,ioos.station.NOAA.NDBC:WIWF1:1,2019-10-02T20:00:00Z,25.5870,-81.0440,1.5,0.78,11111222 
ENP,ioos.station.NOAA.NDBC:WIWF1:1,2019-10-02T21:00:00Z,25.5870,-81.0440,1.5,0.84,11111222 
ENP,ioos.station.NOAA.NDBC:WIWF1:1,2019-10-02T22:00:00Z,25.5870,-81.0440,1.5,1.0,11111222 
ENP,ioos.station.NOAA.NDBC:WIWF1:1,2019-10-02T23:00:00Z,25.5870,-81.0440,1.5,0.95,11111222 
ENP,ioos.station.NOAA.NDBC:WIWF1:1,2019-10-03T04:00:00Z,25.5870,-81.0440,1.5,1.31,11111222 
ENP,ioos.station.NOAA.NDBC:WIWF1:1,2019-10-03T05:00:00Z,25.5870,-81.0440,1.5,1.24,11111222 
ENP,ioos.station.NOAA.NDBC:WIWF1:1,2019-10-03T17:00:00Z,25.5870,-81.0440,1.5,1.05,11111222 
ENP,ioos.station.NOAA.NDBC:WIWF1:1,2019-10-03T18:00:00Z,25.5870,-81.0440,1.5,1.03,11111222 
ENP,ioos.station.NOAA.NDBC:WIWF1:1,2019-10-03T19:00:00Z,25.5870,-81.0440,1.5,0.97,11111222 
ENP,ioos.station.NOAA.NDBC:WIWF1:1,2019-10-03T20:00:00Z,25.5870,-81.0440,1.5,0.92,11111222 
ENP,ioos.station.NOAA.NDBC:WIWF1:1,2019-10-03T21:00:00Z,25.5870,-81.0440,1.5,0.87,11111222 
ENP,ioos.station.NOAA.NDBC:WIWF1:1,2019-10-03T22:00:00Z,25.5870,-81.0440,1.5,0.87,11111222 
ENP,ioos.station.NOAA.NDBC:WIWF1:1,2019-10-03T23:00:00Z,25.5870,-81.0440,1.5,0.95,11111222 
ENP,ioos.station.NOAA.NDBC:WIWF1:1,2019-10-04T00:00:00Z,25.5870,-81.0440,1.5,1.1,11111222 
ENP,ioos.station.NOAA.NDBC:WIWF1:1,2019-10-04T02:00:00Z,25.5870,-81.0440,1.5,1.79,11111222 
ENP,ioos.station.NOAA.NDBC:WIWF1:1,2019-10-04T04:00:00Z,25.5870,-81.0440,1.5,1.74,11111222 
ENP,ioos.station.NOAA.NDBC:WIWF1:1,2019-10-04T05:00:00Z,25.5870,-81.0440,1.5,1.37,11111222 
ENP,ioos.station.NOAA.NDBC:WIWF1:1,2019-10-04T06:00:00Z,25.5870,-81.0440,1.5,1.09,11111222 
ENP,ioos.station.NOAA.NDBC:WIWF1:1,2019-10-04T07:00:00Z,25.5870,-81.0440,1.5,0.92,11111222 
ENP,ioos.station.NOAA.NDBC:WIWF1:1,2019-10-04T08:00:00Z,25.5870,-81.0440,1.5,0.88,11111222 
ENP,ioos.station.NOAA.NDBC:WIWF1:1,2019-10-04T09:00:00Z,25.5870,-81.0440,1.5,0.92,11111222 
ENP,ioos.station.NOAA.NDBC:WIWF1:1,2019-10-04T10:00:00Z,25.5870,-81.0440,1.5,1.31,11111222 
ENP,ioos.station.NOAA.NDBC:WIWF1:1,2019-10-04T11:00:00Z,25.5870,-81.0440,1.5,1.72,11111222 
ENP,ioos.station.NOAA.NDBC:WIWF1:1,2019-10-04T12:00:00Z,25.5870,-81.0440,1.5,1.81,11111222 
ENP,ioos.station.NOAA.NDBC:WIWF1:1,2019-10-04T13:00:00Z,25.5870,-81.0440,1.5,1.88,11111222 
ENP,ioos.station.NOAA.NDBC:WIWF1:1,2019-10-04T14:00:00Z,25.5870,-81.0440,1.5,2.04,11111222 
ENP,ioos.station.NOAA.NDBC:WIWF1:1,2019-10-04T15:00:00Z,25.5870,-81.0440,1.5,2.14,11111222 
ENP,ioos.station.NOAA.NDBC:WIWF1:1,2019-10-04T16:00:00Z,25.5870,-81.0440,1.5,2.06,11111222 
ENP,ioos.station.NOAA.NDBC:WIWF1:1,2019-10-04T17:00:00Z,25.5870,-81.0440,1.5,1.86,11111222 
ENP,ioos.station.NOAA.NDBC:WIWF1:1,2019-10-04T18:00:00Z,25.5870,-81.0440,1.5,1.72,11111222 
ENP,ioos.station.NOAA.NDBC:WIWF1:1,2019-10-04T19:00:00Z,25.5870,-81.0440,1.5,1.45,11111222 
ENP,ioos.station.NOAA.NDBC:WIWF1:1,2019-10-04T20:00:00Z,25.5870,-81.0440,1.5,1.23,11111222 
ENP,ioos.station.NOAA.NDBC:WIWF1:1,2019-10-04T22:00:00Z,25.5870,-81.0440,1.5,1.03,11111222 
ENP,ioos.station.NOAA.NDBC:WIWF1:1,2019-10-04T23:00:00Z,25.5870,-81.0440,1.5,1.05,11111222 
ENP,ioos.station.NOAA.NDBC:WIWF1:1,2019-10-05T00:00:00Z,25.5870,-81.0440,1.5,1.3,11111222 
ENP,ioos.station.NOAA.NDBC:WIWF1:1,2019-10-05T02:00:00Z,25.5870,-81.0440,1.5,1.91,11111222 
ENP,ioos.station.NOAA.NDBC:WIWF1:1,2019-10-05T04:00:00Z,25.5870,-81.0440,1.5,2.52,11111222 
ENP,ioos.station.NOAA.NDBC:WIWF1:1,2019-10-05T05:00:00Z,25.5870,-81.0440,1.5,2.3,11111222 
ENP,ioos.station.NOAA.NDBC:WIWF1:1,2019-10-05T06:00:00Z,25.5870,-81.0440,1.5,1.88,11111222 
ENP,ioos.station.NOAA.NDBC:WIWF1:1,2019-10-05T07:00:00Z,25.5870,-81.0440,1.5,1.61,11111222 
ENP,ioos.station.NOAA.NDBC:WIWF1:1,2019-10-05T08:00:00Z,25.5870,-81.0440,1.5,1.43,11111222 
ENP,ioos.station.NOAA.NDBC:WIWF1:1,2019-10-05T09:00:00Z,25.5870,-81.0440,1.5,1.37,11111222 
ENP,ioos.station.NOAA.NDBC:WIWF1:1,2019-10-05T10:00:00Z,25.5870,-81.0440,1.5,1.59,11111222 
ENP,ioos.station.NOAA.NDBC:WIWF1:1,2019-10-05T11:00:00Z,25.5870,-81.0440,1.5,2.0,11111222 
ENP,ioos.station.NOAA.NDBC:WIWF1:1,2019-10-05T12:00:00Z,25.5870,-81.0440,1.5,2.37,11111222 
ENP,ioos.station.NOAA.NDBC:WIWF1:1,2019-10-05T13:00:00Z,25.5870,-81.0440,1.5,2.61,11111222 
ENP,ioos.station.NOAA.NDBC:WIWF1:1,2019-10-05T14:00:00Z,25.5870,-81.0440,1.5,2.8,11111222 
ENP,ioos.station.NOAA.NDBC:WIWF1:1,2019-10-05T15:00:00Z,25.5870,-81.0440,1.5,3.01,11111222 
ENP,ioos.station.NOAA.NDBC:WIWF1:1,2019-10-05T16:00:00Z,25.5870,-81.0440,1.5,3.04,11111222 
ENP,ioos.station.NOAA.NDBC:WIWF1:1,2019-10-05T18:00:00Z,25.5870,-81.0440,1.5,3.85,11111222 
ENP,ioos.station.NOAA.NDBC:WIWF1:1,2019-10-05T19:00:00Z,25.5870,-81.0440,1.5,4.29,11111222 
ENP,ioos.station.NOAA.NDBC:WIWF1:1,2019-10-05T20:00:00Z,25.5870,-81.0440,1.5,4.13,11111222 
ENP,ioos.station.NOAA.NDBC:WIWF1:1,2019-10-05T21:00:00Z,25.5870,-81.0440,1.5,3.94,11111222 
ENP,ioos.station.NOAA.NDBC:WIWF1:1,2019-10-05T22:00:00Z,25.5870,-81.0440,1.5,3.64,11111222 
ENP,ioos.station.NOAA.NDBC:WIWF1:1,2019-10-05T23:00:00Z,25.5870,-81.0440,1.5,3.45,11111222 
ENP,ioos.station.NOAA.NDBC:WIWF1:1,2019-10-06T00:00:00Z,25.5870,-81.0440,1.5,3.4,11111222 
ENP,ioos.station.NOAA.NDBC:WIWF1:1,2019-10-06T01:00:00Z,25.5870,-81.0440,1.5,3.41,11111222 
ENP,ioos.station.NOAA.NDBC:WIWF1:1,2019-10-06T02:00:00Z,25.5870,-81.0440,1.5,3.3,11111222 
ENP,ioos.station.NOAA.NDBC:WIWF1:1,2019-10-06T04:00:00Z,25.5870,-81.0440,1.5,3.29,11111222 
ENP,ioos.station.NOAA.NDBC:WIWF1:1,2019-10-06T05:00:00Z,25.5870,-81.0440,1.5,3.3,11111222 
ENP,ioos.station.NOAA.NDBC:WIWF1:1,2019-10-06T06:00:00Z,25.5870,-81.0440,1.5,3.29,11111222 
ENP,ioos.station.NOAA.NDBC:WIWF1:1,2019-10-06T07:00:00Z,25.5870,-81.0440,1.5,3.29,11111222 
ENP,ioos.station.NOAA.NDBC:WIWF1:1,2019-10-06T08:00:00Z,25.5870,-81.0440,1.5,3.28,11111222 
ENP,ioos.station.NOAA.NDBC:WIWF1:1,2019-10-06T09:00:00Z,25.5870,-81.0440,1.5,3.29,11111222 
ENP,ioos.station.NOAA.NDBC:WIWF1:1,2019-10-06T10:00:00Z,25.5870,-81.0440,1.5,3.28,11111222 
ENP,ioos.station.NOAA.NDBC:WIWF1:1,2019-10-06T11:00:00Z,25.5870,-81.0440,1.5,3.16,11111222 
ENP,ioos.station.NOAA.NDBC:WIWF1:1,2019-10-06T12:00:00Z,25.5870,-81.0440,1.5,2.78,11111222 
ENP,ioos.station.NOAA.NDBC:WIWF1:1,2019-10-06T13:00:00Z,25.5870,-81.0440,1.5,2.74,11111222 
ENP,ioos.station.NOAA.NDBC:WIWF1:1,2019-10-06T14:00:00Z,25.5870,-81.0440,1.5,2.75,11111222 
ENP,ioos.station.NOAA.NDBC:WIWF1:1,2019-10-06T15:00:00Z,25.5870,-81.0440,1.5,2.75,11111222 
ENP,ioos.station.NOAA.NDBC:WIWF1:1,2019-10-06T16:00:00Z,25.5870,-81.0440,1.5,2.75,11111222 
ENP,ioos.station.NOAA.NDBC:WIWF1:1,2019-10-06T18:00:00Z,25.5870,-81.0440,1.5,2.77,11111222 
ENP,ioos.station.NOAA.NDBC:WIWF1:1,2019-10-06T19:00:00Z,25.5870,-81.0440,1.5,2.78,11111222 
ENP,ioos.station.NOAA.NDBC:WIWF1:1,2019-10-06T20:00:00Z,25.5870,-81.0440,1.5,2.77,11111222 
ENP,ioos.station.NOAA.NDBC:WIWF1:1,2019-10-06T21:00:00Z,25.5870,-81.0440,1.5,2.78,11111222 
ENP,ioos.station.NOAA.NDBC:WIWF1:1,2019-10-06T22:00:00Z,25.5870,-81.0440,1.5,2.78,11111222 
ENP,ioos.station.NOAA.NDBC:WIWF1:1,2019-10-06T23:00:00Z,25.5870,-81.0440,1.5,2.78,11111222 
ENP,ioos.station.NOAA.NDBC:WIWF1:1,2019-10-07T00:00:00Z,25.5870,-81.0440,1.5,2.57,11111222 
ENP,ioos.station.NOAA.NDBC:WIWF1:1,2019-10-07T01:00:00Z,25.5870,-81.0440,1.5,2.24,11111222 
ENP,ioos.station.NOAA.NDBC:WIWF1:1,2019-10-07T02:00:00Z,25.5870,-81.0440,1.5,1.84,11111222 
ENP,ioos.station.NOAA.NDBC:WIWF1:1,2019-10-07T04:00:00Z,25.5870,-81.0440,1.5,1.63,11111222 
ENP,ioos.station.NOAA.NDBC:WIWF1:1,2019-10-07T06:00:00Z,25.5870,-81.0440,1.5,1.63,11111222 
ENP,ioos.station.NOAA.NDBC:WIWF1:1,2019-10-07T07:00:00Z,25.5870,-81.0440,1.5,1.63,11111222 
ENP,ioos.station.NOAA.NDBC:WIWF1:1,2019-10-07T08:00:00Z,25.5870,-81.0440,1.5,1.63,11111222 
ENP,ioos.station.NOAA.NDBC:WIWF1:1,2019-10-07T09:00:00Z,25.5870,-81.0440,1.5,1.63,11111222 
ENP,ioos.station.NOAA.NDBC:WIWF1:1,2019-10-07T10:00:00Z,25.5870,-81.0440,1.5,1.62,11111222 
ENP,ioos.station.NOAA.NDBC:WIWF1:1,2019-10-07T11:00:00Z,25.5870,-81.0440,1.5,1.62,11111222 
ENP,ioos.station.NOAA.NDBC:WIWF1:1,2019-10-07T12:00:00Z,25.5870,-81.0440,1.5,1.62,11111222 
ENP,ioos.station.NOAA.NDBC:WIWF1:1,2019-10-07T14:00:00Z,25.5870,-81.0440,1.5,1.77,11111222 
ENP,ioos.station.NOAA.NDBC:WIWF1:1,2019-10-07T15:00:00Z,25.5870,-81.0440,1.5,1.86,11111222 
ENP,ioos.station.NOAA.NDBC:WIWF1:1,2019-10-07T16:00:00Z,25.5870,-81.0440,1.5,1.98,11111222 
ENP,ioos.station.NOAA.NDBC:WIWF1:1,2019-10-07T18:00:00Z,25.5870,-81.0440,1.5,2.49,11111222 
ENP,ioos.station.NOAA.NDBC:WIWF1:1,2019-10-07T19:00:00Z,25.5870,-81.0440,1.5,2.75,11111222 
ENP,ioos.station.NOAA.NDBC:WIWF1:1,2019-10-07T20:00:00Z,25.5870,-81.0440,1.5,2.59,11111222 
ENP,ioos.station.NOAA.NDBC:WIWF1:1,2019-10-07T21:00:00Z,25.5870,-81.0440,1.5,2.27,11111222 
ENP,ioos.station.NOAA.NDBC:WIWF1:1,2019-10-07T23:00:00Z,25.5870,-81.0440,1.5,2.0,11111222 
ENP,ioos.station.NOAA.NDBC:WIWF1:1,2019-10-08T04:00:00Z,25.5870,-81.0440,1.5,3.37,11111222 
ENP,ioos.station.NOAA.NDBC:WIWF1:1,2019-10-08T06:00:00Z,25.5870,-81.0440,1.5,3.85,11111222 
ENP,ioos.station.NOAA.NDBC:WIWF1:1,2019-10-08T07:00:00Z,25.5870,-81.0440,1.5,4.03,11111222 
ENP,ioos.station.NOAA.NDBC:WIWF1:1,2019-10-08T08:00:00Z,25.5870,-81.0440,1.5,4.16,11111222 
ENP,ioos.station.NOAA.NDBC:WIWF1:1,2019-10-08T09:00:00Z,25.5870,-81.0440,1.5,4.35,11111222 
ENP,ioos.station.NOAA.NDBC:WIWF1:1,2019-10-08T10:00:00Z,25.5870,-81.0440,1.5,4.41,11111222 
ENP,ioos.station.NOAA.NDBC:WIWF1:1,2019-10-08T11:00:00Z,25.5870,-81.0440,1.5,4.35,11111222 
ENP,ioos.station.NOAA.NDBC:WIWF1:1,2019-10-08T12:00:00Z,25.5870,-81.0440,1.5,4.29,11111222 
ENP,ioos.station.NOAA.NDBC:WIWF1:1,2019-10-08T14:00:00Z,25.5870,-81.0440,1.5,4.58,11111222 
ENP,ioos.station.NOAA.NDBC:WIWF1:1,2019-10-08T15:00:00Z,25.5870,-81.0440,1.5,4.75,11111222 
ENP,ioos.station.NOAA.NDBC:WIWF1:1,2019-10-08T16:00:00Z,25.5870,-81.0440,1.5,4.94,11111222 
ENP,ioos.station.NOAA.NDBC:WIWF1:1,2019-10-08T17:00:00Z,25.5870,-81.0440,1.5,5.18,11111222 
ENP,ioos.station.NOAA.NDBC:WIWF1:1,2019-10-08T18:00:00Z,25.5870,-81.0440,1.5,5.4,11111222 
ENP,ioos.station.NOAA.NDBC:WIWF1:1,2019-10-08T19:00:00Z,25.5870,-81.0440,1.5,5.71,11111222 
ENP,ioos.station.NOAA.NDBC:WIWF1:1,2019-10-08T20:00:00Z,25.5870,-81.0440,1.5,5.96,11111222 
ENP,ioos.station.NOAA.NDBC:WIWF1:1,2019-10-08T21:00:00Z,25.5870,-81.0440,1.5,5.91,11111222 
ENP,ioos.station.NOAA.NDBC:WIWF1:1,2019-10-08T22:00:00Z,25.5870,-81.0440,1.5,5.62,11111222 
ENP,ioos.station.NOAA.NDBC:WIWF1:1,2019-10-08T23:00:00Z,25.5870,-81.0440,1.5,5.33,11111222 
ENP,ioos.station.NOAA.NDBC:WIWF1:1,2019-10-09T00:00:00Z,25.5870,-81.0440,1.5,5.06,11111222 
ENP,ioos.station.NOAA.NDBC:WIWF1:1,2019-10-09T02:00:00Z,25.5870,-81.0440,1.5,4.64,11111222 
ENP,ioos.station.NOAA.NDBC:WIWF1:1,2019-10-09T04:00:00Z,25.5870,-81.0440,1.5,4.75,11111222 
ENP,ioos.station.NOAA.NDBC:WIWF1:1,2019-10-09T05:00:00Z,25.5870,-81.0440,1.5,4.96,11111222 
ENP,ioos.station.NOAA.NDBC:WIWF1:1,2019-10-09T06:00:00Z,25.5870,-81.0440,1.5,5.15,11111222 
ENP,ioos.station.NOAA.NDBC:WIWF1:1,2019-10-09T07:00:00Z,25.5870,-81.0440,1.5,5.36,11111222 
ENP,ioos.station.NOAA.NDBC:WIWF1:1,2019-10-09T08:00:00Z,25.5870,-81.0440,1.5,5.56,11111222 
ENP,ioos.station.NOAA.NDBC:WIWF1:1,2019-10-09T09:00:00Z,25.5870,-81.0440,1.5,5.61,11111222 
ENP,ioos.station.NOAA.NDBC:WIWF1:1,2019-10-09T10:00:00Z,25.5870,-81.0440,1.5,5.42,11111222 
ENP,ioos.station.NOAA.NDBC:WIWF1:1,2019-10-09T11:00:00Z,25.5870,-81.0440,1.5,5.17,11111222 
ENP,ioos.station.NOAA.NDBC:WIWF1:1,2019-10-09T13:00:00Z,25.5870,-81.0440,1.5,4.84,11111222 
ENP,ioos.station.NOAA.NDBC:WIWF1:1,2019-10-09T14:00:00Z,25.5870,-81.0440,1.5,4.7,11111222 
ENP,ioos.station.NOAA.NDBC:WIWF1:1,2019-10-09T15:00:00Z,25.5870,-81.0440,1.5,4.75,11111222 
ENP,ioos.station.NOAA.NDBC:WIWF1:1,2019-10-09T16:00:00Z,25.5870,-81.0440,1.5,5.06,11111222 
ENP,ioos.station.NOAA.NDBC:WIWF1:1,2019-10-09T17:00:00Z,25.5870,-81.0440,1.5,5.49,11111222 
ENP,ioos.station.NOAA.NDBC:WIWF1:1,2019-10-09T18:00:00Z,25.5870,-81.0440,1.5,6.28,11111222 
ENP,ioos.station.NOAA.NDBC:WIWF1:1,2019-10-09T19:00:00Z,25.5870,-81.0440,1.5,7.03,11111222 
ENP,ioos.station.NOAA.NDBC:WIWF1:1,2019-10-09T20:00:00Z,25.5870,-81.0440,1.5,7.26,11111222 
ENP,ioos.station.NOAA.NDBC:WIWF1:1,2019-10-09T21:00:00Z,25.5870,-81.0440,1.5,7.25,11111222 
ENP,ioos.station.NOAA.NDBC:WIWF1:1,2019-10-10T00:00:00Z,25.5870,-81.0440,1.5,5.79,11111222 
ENP,ioos.station.NOAA.NDBC:WIWF1:1,2019-10-10T02:00:00Z,25.5870,-81.0440,1.5,5.0,11111222 
ENP,ioos.station.NOAA.NDBC:WIWF1:1,2019-10-10T04:00:00Z,25.5870,-81.0440,1.5,4.67,11111222 
ENP,ioos.station.NOAA.NDBC:WIWF1:1,2019-10-10T06:00:00Z,25.5870,-81.0440,1.5,5.37,11111222 
ENP,ioos.station.NOAA.NDBC:WIWF1:1,2019-10-10T07:00:00Z,25.5870,-81.0440,1.5,6.18,11111222 
ENP,ioos.station.NOAA.NDBC:WIWF1:1,2019-10-10T08:00:00Z,25.5870,-81.0440,1.5,6.74,11111222 
ENP,ioos.station.NOAA.NDBC:WIWF1:1,2019-10-10T09:00:00Z,25.5870,-81.0440,1.5,6.88,11111222 
ENP,ioos.station.NOAA.NDBC:WIWF1:1,2019-10-10T10:00:00Z,25.5870,-81.0440,1.5,6.61,11111222 
ENP,ioos.station.NOAA.NDBC:WIWF1:1,2019-10-10T11:00:00Z,25.5870,-81.0440,1.5,6.0,11111222 
ENP,ioos.station.NOAA.NDBC:WIWF1:1,2019-10-10T12:00:00Z,25.5870,-81.0440,1.5,5.49,11111222 
ENP,ioos.station.NOAA.NDBC:WIWF1:1,2019-10-10T13:00:00Z,25.5870,-81.0440,1.5,5.12,11111222 
ENP,ioos.station.NOAA.NDBC:WIWF1:1,2019-10-10T15:00:00Z,25.5870,-81.0440,1.5,4.6,11111222 
ENP,ioos.station.NOAA.NDBC:WIWF1:1,2019-10-10T16:00:00Z,25.5870,-81.0440,1.5,4.58,11111222 
ENP,ioos.station.NOAA.NDBC:WIWF1:1,2019-10-10T17:00:00Z,25.5870,-81.0440,1.5,5.09,11111222 
ENP,ioos.station.NOAA.NDBC:WIWF1:1,2019-10-10T18:00:00Z,25.5870,-81.0440,1.5,5.74,11111222 
ENP,ioos.station.NOAA.NDBC:WIWF1:1,2019-10-10T19:00:00Z,25.5870,-81.0440,1.5,6.16,11111222 
ENP,ioos.station.NOAA.NDBC:WIWF1:1,2019-10-10T20:00:00Z,25.5870,-81.0440,1.5,6.38,11111222 
ENP,ioos.station.NOAA.NDBC:WIWF1:1,2019-10-10T21:00:00Z,25.5870,-81.0440,1.5,6.48,11111222 
ENP,ioos.station.NOAA.NDBC:WIWF1:1,2019-10-10T22:00:00Z,25.5870,-81.0440,1.5,6.4,11111222 
ENP,ioos.station.NOAA.NDBC:WIWF1:1,2019-10-10T23:00:00Z,25.5870,-81.0440,1.5,6.19,11111222 
ENP,ioos.station.NOAA.NDBC:WIWF1:1,2019-10-11T00:00:00Z,25.5870,-81.0440,1.5,5.94,11111222 
ENP,ioos.station.NOAA.NDBC:WIWF1:1,2019-10-11T01:00:00Z,25.5870,-81.0440,1.5,5.62,11111222 
ENP,ioos.station.NOAA.NDBC:WIWF1:1,2019-10-11T02:00:00Z,25.5870,-81.0440,1.5,5.31,11111222 
ENP,ioos.station.NOAA.NDBC:WIWF1:1,2019-10-11T04:00:00Z,25.5870,-81.0440,1.5,4.64,11111222 
ENP,ioos.station.NOAA.NDBC:WIWF1:1,2019-10-11T06:00:00Z,25.5870,-81.0440,1.5,5.79,11111222 
ENP,ioos.station.NOAA.NDBC:WIWF1:1,2019-10-11T07:00:00Z,25.5870,-81.0440,1.5,6.14,11111222 
ENP,ioos.station.NOAA.NDBC:WIWF1:1,2019-10-11T08:00:00Z,25.5870,-81.0440,1.5,6.24,11111222 
ENP,ioos.station.NOAA.NDBC:WIWF1:1,2019-10-11T09:00:00Z,25.5870,-81.0440,1.5,6.29,11111222 
ENP,ioos.station.NOAA.NDBC:WIWF1:1,2019-10-11T10:00:00Z,25.5870,-81.0440,1.5,6.31,11111222 
ENP,ioos.station.NOAA.NDBC:WIWF1:1,2019-10-11T11:00:00Z,25.5870,-81.0440,1.5,6.3,11111222 
ENP,ioos.station.NOAA.NDBC:WIWF1:1,2019-10-11T12:00:00Z,25.5870,-81.0440,1.5,6.12,11111222 
ENP,ioos.station.NOAA.NDBC:WIWF1:1,2019-10-11T13:00:00Z,25.5870,-81.0440,1.5,5.65,11111222 
ENP,ioos.station.NOAA.NDBC:WIWF1:1,2019-10-11T14:00:00Z,25.5870,-81.0440,1.5,5.46,11111222 
ENP,ioos.station.NOAA.NDBC:WIWF1:1,2019-10-11T15:00:00Z,25.5870,-81.0440,1.5,5.17,11111222 
ENP,ioos.station.NOAA.NDBC:WIWF1:1,2019-10-11T16:00:00Z,25.5870,-81.0440,1.5,5.04,11111222 
ENP,ioos.station.NOAA.NDBC:WIWF1:1,2019-10-11T17:00:00Z,25.5870,-81.0440,1.5,5.6,11111222 
ENP,ioos.station.NOAA.NDBC:WIWF1:1,2019-10-11T18:00:00Z,25.5870,-81.0440,1.5,5.98,11111222 
ENP,ioos.station.NOAA.NDBC:WIWF1:1,2019-10-11T19:00:00Z,25.5870,-81.0440,1.5,5.99,11111222 
ENP,ioos.station.NOAA.NDBC:WIWF1:1,2019-10-11T20:00:00Z,25.5870,-81.0440,1.5,5.99,11111222 
ENP,ioos.station.NOAA.NDBC:WIWF1:1,2019-10-11T21:00:00Z,25.5870,-81.0440,1.5,6.0,11111222 
ENP,ioos.station.NOAA.NDBC:WIWF1:1,2019-10-11T22:00:00Z,25.5870,-81.0440,1.5,6.0,11111222 
ENP,ioos.station.NOAA.NDBC:WIWF1:1,2019-10-11T23:00:00Z,25.5870,-81.0440,1.5,6.0,11111222 
ENP,ioos.station.NOAA.NDBC:WIWF1:1,2019-10-12T00:00:00Z,25.5870,-81.0440,1.5,6.0,11111222 
ENP,ioos.station.NOAA.NDBC:WIWF1:1,2019-10-12T01:00:00Z,25.5870,-81.0440,1.5,6.02,11111222 
ENP,ioos.station.NOAA.NDBC:WIWF1:1,2019-10-12T02:00:00Z,25.5870,-81.0440,1.5,6.09,11111222 
ENP,ioos.station.NOAA.NDBC:WIWF1:1,2019-10-12T04:00:00Z,25.5870,-81.0440,1.5,6.25,11111222 
ENP,ioos.station.NOAA.NDBC:WIWF1:1,2019-10-12T06:00:00Z,25.5870,-81.0440,1.5,5.68,11111222 
ENP,ioos.station.NOAA.NDBC:WIWF1:1,2019-10-12T07:00:00Z,25.5870,-81.0440,1.5,5.28,11111222 
ENP,ioos.station.NOAA.NDBC:WIWF1:1,2019-10-12T08:00:00Z,25.5870,-81.0440,1.5,5.26,11111222 
ENP,ioos.station.NOAA.NDBC:WIWF1:1,2019-10-12T09:00:00Z,25.5870,-81.0440,1.5,5.27,11111222 
ENP,ioos.station.NOAA.NDBC:WIWF1:1,2019-10-12T10:00:00Z,25.5870,-81.0440,1.5,5.28,11111222 
ENP,ioos.station.NOAA.NDBC:WIWF1:1,2019-10-12T11:00:00Z,25.5870,-81.0440,1.5,5.27,11111222 
ENP,ioos.station.NOAA.NDBC:WIWF1:1,2019-10-12T12:00:00Z,25.5870,-81.0440,1.5,5.28,11111222 
ENP,ioos.station.NOAA.NDBC:WIWF1:1,2019-10-12T13:00:00Z,25.5870,-81.0440,1.5,5.28,11111222 
ENP,ioos.station.NOAA.NDBC:WIWF1:1,2019-10-12T14:00:00Z,25.5870,-81.0440,1.5,5.67,11111222 
ENP,ioos.station.NOAA.NDBC:WIWF1:1,2019-10-12T15:00:00Z,25.5870,-81.0440,1.5,5.74,11111222 
ENP,ioos.station.NOAA.NDBC:WIWF1:1,2019-10-12T16:00:00Z,25.5870,-81.0440,1.5,5.6,11111222 
ENP,ioos.station.NOAA.NDBC:WIWF1:1,2019-10-12T17:00:00Z,25.5870,-81.0440,1.5,5.34,11111222 
ENP,ioos.station.NOAA.NDBC:WIWF1:1,2019-10-12T18:00:00Z,25.5870,-81.0440,1.5,4.82,11111222 
ENP,ioos.station.NOAA.NDBC:WIWF1:1,2019-10-12T19:00:00Z,25.5870,-81.0440,1.5,4.35,11111222 
ENP,ioos.station.NOAA.NDBC:WIWF1:1,2019-10-12T20:00:00Z,25.5870,-81.0440,1.5,4.34,11111222 
ENP,ioos.station.NOAA.NDBC:WIWF1:1,2019-10-12T21:00:00Z,25.5870,-81.0440,1.5,4.34,11111222 
ENP,ioos.station.NOAA.NDBC:WIWF1:1,2019-10-12T22:00:00Z,25.5870,-81.0440,1.5,4.34,11111222 
ENP,ioos.station.NOAA.NDBC:WIWF1:1,2019-10-12T23:00:00Z,25.5870,-81.0440,1.5,4.35,11111222 
ENP,ioos.station.NOAA.NDBC:WIWF1:1,2019-10-13T00:00:00Z,25.5870,-81.0440,1.5,4.35,11111222 
ENP,ioos.station.NOAA.NDBC:WIWF1:1,2019-10-13T01:00:00Z,25.5870,-81.0440,1.5,4.35,11111222 
ENP,ioos.station.NOAA.NDBC:WIWF1:1,2019-10-13T02:00:00Z,25.5870,-81.0440,1.5,4.35,11111222 
ENP,ioos.station.NOAA.NDBC:WIWF1:1,2019-10-13T04:00:00Z,25.5870,-81.0440,1.5,4.72,11111222 
ENP,ioos.station.NOAA.NDBC:WIWF1:1,2019-10-13T06:00:00Z,25.5870,-81.0440,1.5,4.18,11111222 
ENP,ioos.station.NOAA.NDBC:WIWF1:1,2019-10-13T07:00:00Z,25.5870,-81.0440,1.5,3.56,11111222 
ENP,ioos.station.NOAA.NDBC:WIWF1:1,2019-10-13T08:00:00Z,25.5870,-81.0440,1.5,3.51,11111222 
ENP,ioos.station.NOAA.NDBC:WIWF1:1,2019-10-13T09:00:00Z,25.5870,-81.0440,1.5,3.51,11111222 
ENP,ioos.station.NOAA.NDBC:WIWF1:1,2019-10-13T10:00:00Z,25.5870,-81.0440,1.5,3.5,11111222 
ENP,ioos.station.NOAA.NDBC:WIWF1:1,2019-10-13T11:00:00Z,25.5870,-81.0440,1.5,3.5,11111222 
ENP,ioos.station.NOAA.NDBC:WIWF1:1,2019-10-13T12:00:00Z,25.5870,-81.0440,1.5,3.5,11111222 
ENP,ioos.station.NOAA.NDBC:WIWF1:1,2019-10-13T13:00:00Z,25.5870,-81.0440,1.5,3.5,11111222 
ENP,ioos.station.NOAA.NDBC:WIWF1:1,2019-10-13T14:00:00Z,25.5870,-81.0440,1.5,3.51,11111222 
ENP,ioos.station.NOAA.NDBC:WIWF1:1,2019-10-13T15:00:00Z,25.5870,-81.0440,1.5,3.5,11111222 
ENP,ioos.station.NOAA.NDBC:WIWF1:1,2019-10-13T16:00:00Z,25.5870,-81.0440,1.5,3.74,11111222 
ENP,ioos.station.NOAA.NDBC:WIWF1:1,2019-10-13T18:00:00Z,25.5870,-81.0440,1.5,3.44,11111222 
ENP,ioos.station.NOAA.NDBC:WIWF1:1,2019-10-13T19:00:00Z,25.5870,-81.0440,1.5,2.76,11111222 
ENP,ioos.station.NOAA.NDBC:WIWF1:1,2019-10-13T20:00:00Z,25.5870,-81.0440,1.5,2.74,11111222 
ENP,ioos.station.NOAA.NDBC:WIWF1:1,2019-10-13T21:00:00Z,25.5870,-81.0440,1.5,2.74,11111222 
ENP,ioos.station.NOAA.NDBC:WIWF1:1,2019-10-13T22:00:00Z,25.5870,-81.0440,1.5,2.74,11111222 
ENP,ioos.station.NOAA.NDBC:WIWF1:1,2019-10-13T23:00:00Z,25.5870,-81.0440,1.5,2.74,11111222 
ENP,ioos.station.NOAA.NDBC:WIWF1:1,2019-10-14T00:00:00Z,25.5870,-81.0440,1.5,2.75,11111222 
ENP,ioos.station.NOAA.NDBC:WIWF1:1,2019-10-14T01:00:00Z,25.5870,-81.0440,1.5,2.74,11111222 
ENP,ioos.station.NOAA.NDBC:WIWF1:1,2019-10-14T02:00:00Z,25.5870,-81.0440,1.5,2.74,11111222 
ENP,ioos.station.NOAA.NDBC:WIWF1:1,2019-10-14T04:00:00Z,25.5870,-81.0440,1.5,2.74,11111222 